This is the latest recevied weather packets stored in our database for station/object IZ1GCT. If no packets are shown the sender has not sent any weather packets the latest 10 day(s).
| Time | Temp. | Humidity | Pressure | Rain* | Wind** | Luminosity | Snow |
|---|---|---|---|---|---|---|---|
| 1778138143 | 16.67° C | 43% | 1016.2 hPa | 0 mm | - | - | - |
| 1778137842 | 16.67° C | 44% | 1016.1 hPa | 0 mm | - | - | - |
| 1778137542 | 16.67° C | 43% | 1016.1 hPa | 0 mm | - | - | - |
| 1778137243 | 17.22° C | 44% | 1016.1 hPa | 0 mm | - | - | - |
| 1778136942 | 17.22° C | 48% | 1016.1 hPa | 0 mm | - | - | - |
| 1778136643 | 16.11° C | 50% | 1016.1 hPa | 0 mm | - | - | - |
| 1778136342 | 15.56° C | 50% | 1016.1 hPa | 0 mm | - | - | - |
| 1778136042 | 15.56° C | 51% | 1016 hPa | 0 mm | - | - | - |
| 1778135743 | 15.56° C | 48% | 1016 hPa | 0 mm | - | - | - |
| 1778135442 | 15.56° C | 52% | 1016 hPa | 0 mm | - | - | - |
| 1778135142 | 15° C | 54% | 1015.9 hPa | 0 mm | - | - | - |
| 1778134843 | 13.89° C | 54% | 1015.9 hPa | 0 mm | - | - | - |
| 1778134543 | 12.78° C | 56% | 1015.9 hPa | 0 mm | - | - | - |
| 1778134242 | 12.22° C | 58% | 1015.8 hPa | 0 mm | - | - | - |
| 1778133943 | 13.33° C | 53% | 1015.9 hPa | 0 mm | - | - | - |
| 1778133641 | 14.44° C | 56% | 1015.8 hPa | 0 mm | - | - | - |
| 1778133343 | 15° C | 60% | 1016 hPa | 0 mm | - | - | - |
| 1778133042 | 13.89° C | 63% | 1015.8 hPa | 0 mm | - | - | - |
| 1778132742 | 12.78° C | 66% | 1015.8 hPa | 0 mm | - | - | - |
| 1778132443 | 11.67° C | 74% | 1015.8 hPa | 0 mm | - | - | - |
| 1778132142 | 10° C | 84% | 1015.8 hPa | 0 mm | - | - | - |
| 1778131842 | 8.33° C | 88% | 1015.7 hPa | 0 mm | - | - | - |
| 1778131541 | 6.67° C | 92% | 1015.6 hPa | 0 mm | - | - | - |
| 1778131243 | 6.11° C | 91% | 1015.6 hPa | 0 mm | - | - | - |
| 1778130942 | 5.56° C | 91% | 1015.5 hPa | 0 mm | - | - | - |
* Rain latest hour (hover to see other rain measurements)
** Current wind speed in m/s (hover to see current wind gust speed)